QPF
0.03 0.06 0.03 0.01 0.00 0.00 0.00 0.02 0.01 0.02 0.02 0.02 0.02 0.00 0.00 0.00 0.00 0.00 0.00 0.00 0.00 0.00 0.00 0.00 0.00 0.00 0.00 0.00 0.00 0.00 0.00 0.00 0.00 0.00 0.00 0.00 0.06 0.01 0.00 0.00 0.00 0.00 0.00 0.00 0.00 0.00 0.00 0.01 0.01
0.03 0.05 0.06 0.05 0.00 0.01 0.00 0.00 0.00 0.00 0.00 0.00 0.00 0.00 0.00 0.00 0.00 0.00 0.00 0.00 0.00 0.00 0.00 0.00 0.00 0.00 0.00 0.00 0.00 0.00 0.00 0.00 0.00 0.00 0.00 0.00 0.01 0.01 0.00 0.00 0.00 0.00 0.00 0.00 0.00 0.00 0.00 0.00 0.03
0.03 0.02 0.03 0.00 0.00 0.00 0.00 0.00 0.00 0.01 0.01 0.01 0.00 0.00 0.00 0.00 0.00 0.00 0.00 0.00 0.00 0.00 0.00 0.00 0.00 0.00 0.00 0.00 0.00 0.00 0.00 0.00 0.00 0.00 0.00 0.00 0.00 0.00 0.00 0.00 0.00 0.00 0.00 0.00 0.00 0.00 0.00 0.00 0.00
0.00 0.01 0.01 0.00 0.00 0.00 0.00 0.00 0.00 0.00 0.01 0.00 0.00 0.00 0.00 0.00 0.00 0.00 0.00 0.00 0.00 0.00 0.00 0.00 0.00 0.00 0.00 0.00 0.00 0.00 0.00 0.00 0.00 0.00 0.00 0.00 0.00 0.00 0.00 0.00 0.00 0.00 0.00 0.00 0.00 0.00 0.00 0.00 0.00
0.00 0.00 0.00 0.00 0.00 0.00 0.00 0.00 0.00 0.00 0.00 0.00 0.00 0.00 0.00 0.00 0.00 0.00 0.00 0.00 0.00 0.00 0.00 0.00 0.00 0.00 0.00 0.00 0.00 0.00 0.00 0.00 0.00 0.00 0.00 0.00 0.00 0.00 0.00 0.00 0.00 0.00 0.00 0.00 0.00 0.00 0.00 0.00 0.00
0.00 0.00 0.00 0.00 0.00 0.00 0.00 0.00 0.00 0.00 0.00 0.00 0.00 0.00 0.00 0.00 0.00 0.00 0.00 0.00 0.00 0.00 0.00 0.00 0.00 0.00 0.00 0.00 0.00 0.00 0.00 0.00 0.00 0.00 0.00 0.00 0.00 0.00 0.00 0.00 0.00 0.00 0.00 0.00 0.00 0.00 0.00 0.00 0.00
0.00 0.00 0.00 0.00 0.00 0.00 0.00 0.00 0.00 0.00 0.00 0.00 0.00 0.00 0.00 0.00 0.00 0.00 0.00 0.00 0.00 0.00 0.00 0.00 0.00 0.00 0.00 0.00 0.00 0.00 0.00 0.00 0.00 0.00 0.00 0.00 0.00 0.00 0.00 0.00 0.00 0.00 0.00 0.00 0.00 0.00 0.00 0.00 0.00
0.00 0.00 0.00 0.00 0.00 0.00 0.00 0.00 0.00 0.00 0.00 0.00 0.00 0.00 0.00 0.00 0.00 0.00 0.00 0.00 0.00 0.00 0.00 0.00 0.00 0.00 0.00 0.00 0.00 0.00 0.00 0.00 0.00 0.00 0.00 0.00 0.00 0.00 0.00 0.00 0.00 0.00 0.00 0.00 0.00 0.00 0.00 0.01 0.04
0.00 0.00 0.00 0.00 0.00 0.00 0.00 0.00 0.00 0.00 0.00 0.00 0.00 0.00 0.00 0.00 0.00 0.00 0.00 0.00 0.00 0.00 0.00 0.00 0.00 0.00 0.00 0.00 0.00 0.00 0.00 0.00 0.00 0.00 0.00 0.00 0.00 0.00 0.00 0.00 0.00 0.00 0.00 0.00 0.00 0.00 0.07 0.13 0.14
0.00 0.00 0.00 0.00 0.00 0.00 0.00 0.00 0.00 0.00 0.00 0.00 0.00 0.00 0.00 0.00 0.00 0.00 0.00 0.00 0.00 0.00 0.00 0.00 0.00 0.00 0.00 0.00 0.00 0.00 0.00 0.00 0.00 0.00 0.00 0.00 0.00 0.00 0.00 0.00 0.00 0.00 0.00 0.00 0.02 0.10 0.16 0.10 0.12
0.00 0.00 0.00 0.00 0.00 0.00 0.00 0.00 0.00 0.00 0.00 0.00 0.00 0.00 0.00 0.00 0.00 0.00 0.00 0.00 0.00 0.00 0.00 0.00 0.00 0.00 0.00 0.00 0.00 0.00 0.00 0.00 0.00 0.00 0.00 0.00 0.00 0.00 0.00 0.00 0.00 0.00 0.00 0.00 0.02 0.08 0.09 0.02 0.01
0.00 0.01 0.01 0.00 0.00 0.00 0.00 0.00 0.00 0.00 0.00 0.00 0.00 0.00 0.00 0.00 0.00 0.00 0.00 0.00 0.00 0.00 0.00 0.00 0.00 0.00 0.00 0.00 0.00 0.00 0.00 0.00 0.00 0.00 0.00 0.00 0.00 0.00 0.00 0.00 0.00 0.00 0.00 0.00 0.00 0.01 0.01 0.00 0.01
0.00 0.00 0.00 0.00 0.00 0.00 0.00 0.00 0.00 0.00 0.00 0.00 0.00 0.00 0.00 0.00 0.00 0.00 0.00 0.00 0.00 0.00 0.00 0.00 0.00 0.00 0.00 0.00 0.00 0.00 0.00 0.00 0.00 0.00 0.00 0.00 0.00 0.00 0.00 0.00 0.00 0.00 0.00 0.00 0.00 0.01 0.00 0.00 0.00
0.00 0.00 0.00 0.00 0.00 0.00 0.00 0.00 0.00 0.00 0.00 0.00 0.00 0.00 0.00 0.00 0.00 0.00 0.00 0.00 0.00 0.00 0.00 0.00 0.00 0.00 0.00 0.00 0.00 0.00 0.00 0.00 0.00 0.00 0.00 0.00 0.00 0.00 0.00 0.00 0.00 0.00 0.00 0.00 0.00 0.00 0.00 0.00 0.02
0.03 0.01 0.00 0.01 0.01 0.02 0.02 0.00 0.00 0.00 0.00 0.00 0.00 0.00 0.00 0.00 0.00 0.00 0.00 0.00 0.00 0.00 0.00 0.00 0.00 0.00 0.00 0.00 0.00 0.00 0.00 0.00 0.00 0.00 0.00 0.00 0.00 0.00 0.00 0.00 0.00 0.00 0.00 0.00 0.00 0.00 0.00 0.00 0.01
0.02 0.01 0.00 0.01 0.00 0.00 0.00 0.00 0.00 0.00 0.00 0.00 0.00 0.00 0.00 0.00 0.00 0.00 0.00 0.00 0.00 0.00 0.00 0.00 0.00 0.00 0.00 0.00 0.00 0.00 0.00 0.00 0.00 0.00 0.00 0.00 0.00 0.00 0.00 0.00 0.00 0.00 0.00 0.00 0.00 0.00 0.00 0.00 0.00
0.01 0.00 0.00 0.00 0.00 0.00 0.00 0.00 0.00 0.00 0.00 0.00 0.00 0.00 0.00 0.00 0.00 0.00 0.00 0.00 0.00 0.00 0.00 0.00 0.00 0.00 0.00 0.00 0.00 0.00 0.00 0.00 0.00 0.00 0.00 0.00 0.00 0.00 0.00 0.00 0.00 0.00 0.00 0.00 0.00 0.00 0.00 0.00 0.01
0.00 0.00 0.00 0.00 0.00 0.00 0.00 0.00 0.00 0.00 0.00 0.00 0.00 0.00 0.00 0.00 0.00 0.00 0.00 0.00 0.00 0.00 0.00 0.00 0.00 0.00 0.00 0.00 0.00 0.00 0.00 0.00 0.00 0.00 0.00 0.00 0.00 0.00 0.00 0.00 0.00 0.00 0.00 0.00 0.00 0.00 0.00 0.00 0.02
0.00 0.00 0.00 0.00 0.00 0.00 0.00 0.00 0.00 0.00 0.00 0.00 0.00 0.00 0.00 0.00 0.00 0.00 0.00 0.00 0.00 0.00 0.00 0.00 0.00 0.00 0.00 0.00 0.00 0.00 0.00 0.00 0.00 0.00 0.00 0.00 0.00 0.00 0.00 0.00 0.00 0.00 0.00 0.00 0.00 0.00 0.00 0.00 0.00
0.00 0.00 0.00 0.00 0.00 0.00 0.00 0.00 0.00 0.00 0.00 0.00 0.00 0.00 0.00 0.00 0.00 0.00 0.00 0.00 0.00 0.00 0.00 0.00 0.00 0.00 0.00 0.00 0.00 0.00 0.00 0.00 0.00 0.00 0.00 0.00 0.00 0.00 0.00 0.00 0.00 0.00 0.00 0.00 0.00 0.00 0.00 0.00 0.01
0.00 0.00 0.00 0.00 0.00 0.00 0.00 0.00 0.00 0.00 0.00 0.00 0.00 0.00 0.00 0.00 0.00 0.00 0.00 0.00 0.00 0.00 0.00 0.00 0.00 0.00 0.00 0.00 0.00 0.00 0.00 0.00 0.00 0.00 0.00 0.00 0.00 0.00 0.00 0.00 0.00 0.01 0.01 0.01 0.01 0.02 0.00 0.00 0.00
0.00 0.00 0.00 0.00 0.00 0.00 0.00 0.00 0.00 0.00 0.00 0.00 0.00 0.00 0.00 0.00 0.00 0.00 0.00 0.00 0.00 0.00 0.00 0.00 0.00 0.00 0.00 0.00 0.00 0.00 0.00 0.00 0.00 0.00 0.00 0.00 0.00 0.00 0.00 0.00 0.00 0.00 0.01 0.01 0.01 0.02 0.01 0.01 0.01
0.00 0.00 0.00 0.00 0.00 0.00 0.00 0.00 0.00 0.00 0.00 0.00 0.00 0.00 0.00 0.00 0.00 0.00 0.00 0.00 0.00 0.00 0.00 0.00 0.00 0.00 0.00 0.00 0.00 0.00 0.00 0.00 0.00 0.00 0.00 0.00 0.00 0.00 0.00 0.00 0.01 0.01 0.01 0.02 0.03 0.01 0.00 0.02 0.04
0.00 0.00 0.00 0.00 0.00 0.00 0.00 0.00 0.00 0.00 0.00 0.00 0.00 0.00 0.00 0.00 0.00 0.00 0.00 0.00 0.00 0.00 0.00 0.00 0.00 0.00 0.00 0.00 0.00 0.00 0.00 0.00 0.00 0.00 0.00 0.00 0.00 0.00 0.00 0.00 0.00 0.02 0.02 0.02 0.02 0.02 0.01 0.01 0.03
0.00 0.00 0.00 0.00 0.00 0.00 0.00 0.00 0.00 0.00 0.00 0.00 0.00 0.00 0.00 0.00 0.00 0.00 0.00 0.00 0.00 0.00 0.00 0.00 0.00 0.00 0.00 0.00 0.00 0.00 0.00 0.00 0.00 0.00 0.00 0.00 0.00 0.00 0.00 0.00 0.00 0.01 0.03 0.05 0.03 0.02 0.01 0.01 0.03
0.00 0.00 0.00 0.00 0.00 0.00 0.00 0.00 0.00 0.00 0.00 0.00 0.00 0.00 0.00 0.00 0.00 0.00 0.00 0.00 0.00 0.00 0.00 0.00 0.00 0.00 0.00 0.00 0.00 0.00 0.00 0.00 0.00 0.00 0.00 0.00 0.00 0.00 0.00 0.00 0.01 0.03 0.03 0.03 0.01 0.01 0.01 0.07 0.05
0.00 0.00 0.00 0.00 0.00 0.00 0.00 0.00 0.00 0.00 0.00 0.00 0.00 0.00 0.00 0.00 0.00 0.00 0.00 0.00 0.00 0.00 0.00 0.00 0.00 0.00 0.00 0.00 0.00 0.00 0.00 0.01 0.01 0.02 0.03 0.04 0.02 0.00 0.00 0.00 0.00 0.00 0.00 0.00 0.00 0.00 0.01 0.04 0.03
0.00 0.00 0.00 0.00 0.00 0.00 0.00 0.00 0.00 0.00 0.00 0.00 0.00 0.00 0.00 0.00 0.00 0.00 0.00 0.00 0.00 0.00 0.00 0.00 0.00 0.00 0.00 0.00 0.00 0.00 0.00 0.04 0.13 0.09 0.07 0.15 0.13 0.04 0.02 0.00 0.00 0.00 0.00 0.00 0.00 0.00 0.00 0.00 0.01
0.00 0.00 0.00 0.00 0.00 0.00 0.00 0.00 0.00 0.00 0.00 0.00 0.00 0.00 0.00 0.00 0.00 0.00 0.00 0.00 0.00 0.00 0.00 0.00 0.00 0.00 0.00 0.00 0.00 0.00 0.14 0.25 0.24 0.15 0.12 0.12 0.10 0.10 0.03 0.00 0.01 0.00 0.00 0.00 0.00 0.00 0.00 0.00 0.00
0.00 0.00 0.00 0.00 0.00 0.00 0.00 0.00 0.00 0.00 0.00 0.00 0.00 0.00 0.00 0.00 0.00 0.00 0.00 0.00 0.00 0.00 0.00 0.00 0.00 0.00 0.00 0.02 0.09 0.14 0.27 0.21 0.15 0.08 0.07 0.08 0.06 0.06 0.02 0.00 0.00 0.00 0.00 0.00 0.00 0.00 0.00 0.00 0.00
MSLP
1008.67 1008.96 1009.50 1009.91 1010.90 1010.32 1008.86 1008.15 1007.10 1007.12 1007.07 1006.62 1006.76 1007.29 1008.07 1009.29 1009.78 1011.21 1010.91 1011.43 1012.03 1012.77 1013.26 1013.58 1013.92 1014.14 1014.28 1014.80 1015.01 1015.26 1015.53 1015.74 1015.89 1015.92 1016.11 1016.14 1016.27 1016.49 1016.58 1016.64 1016.70 1016.72 1016.86 1017.05 1017.01 1016.99 1016.99 1016.94 1016.93
1008.42 1009.36 1009.89 1009.72 1009.96 1009.06 1008.09 1007.20 1006.92 1006.48 1006.36 1006.50 1007.02 1007.55 1008.11 1009.26 1009.72 1010.66 1011.30 1011.79 1012.08 1012.68 1013.24 1013.66 1013.89 1014.12 1014.48 1014.86 1015.18 1015.34 1015.59 1015.92 1016.03 1016.10 1016.33 1016.35 1016.46 1016.58 1016.60 1016.61 1016.73 1016.82 1016.87 1016.98 1017.08 1017.12 1017.16 1017.17 1017.18
1008.43 1008.21 1009.06 1009.10 1008.92 1008.49 1007.39 1006.65 1006.37 1006.41 1006.38 1006.48 1006.94 1007.44 1008.39 1009.56 1010.34 1010.89 1011.11 1011.76 1012.24 1012.86 1013.29 1013.60 1013.86 1014.18 1014.56 1014.91 1015.20 1015.36 1015.59 1015.94 1016.04 1016.17 1016.40 1016.54 1016.63 1016.62 1016.63 1016.68 1016.84 1016.95 1016.88 1016.94 1016.98 1017.09 1017.23 1017.32 1017.32
1006.96 1007.64 1008.20 1008.21 1008.03 1007.04 1006.22 1006.00 1005.81 1006.08 1006.33 1006.46 1007.00 1008.05 1008.93 1009.32 1010.23 1010.83 1011.43 1011.98 1012.38 1012.89 1013.27 1013.41 1013.79 1014.16 1014.52 1014.84 1015.16 1015.44 1015.69 1015.94 1016.07 1016.20 1016.36 1016.54 1016.69 1016.82 1016.83 1016.72 1016.78 1016.97 1017.04 1017.00 1017.03 1017.12 1017.20 1017.36 1017.35
1006.90 1007.45 1008.06 1007.98 1007.08 1005.98 1005.70 1005.63 1005.53 1005.83 1006.27 1006.73 1007.21 1008.76 1009.78 1010.35 1010.42 1011.10 1011.74 1012.20 1012.46 1013.07 1013.29 1013.50 1013.82 1014.13 1014.48 1014.70 1015.00 1015.31 1015.57 1015.80 1015.95 1016.11 1016.32 1016.52 1016.68 1016.86 1016.92 1016.82 1016.82 1016.91 1017.00 1017.04 1017.04 1017.03 1017.14 1017.27 1017.32
1007.57 1008.04 1008.14 1007.43 1006.27 1005.50 1005.41 1005.30 1005.36 1005.79 1006.47 1007.18 1008.06 1008.94 1010.35 1010.60 1010.77 1011.42 1011.88 1012.29 1012.47 1012.90 1013.17 1013.44 1013.66 1013.96 1014.22 1014.52 1014.92 1015.28 1015.52 1015.75 1015.87 1016.00 1016.24 1016.50 1016.72 1016.86 1016.92 1016.89 1016.91 1016.95 1017.02 1017.04 1017.02 1016.97 1016.98 1017.16 1017.30
1007.68 1008.12 1007.72 1006.79 1005.74 1005.25 1005.08 1005.14 1005.35 1005.81 1006.55 1007.16 1007.65 1009.35 1010.72 1010.95 1011.11 1011.38 1012.10 1012.63 1012.90 1013.02 1013.28 1013.50 1013.81 1014.14 1014.48 1014.84 1015.15 1015.39 1015.58 1015.80 1015.90 1015.98 1016.23 1016.48 1016.66 1016.75 1016.77 1016.87 1016.88 1016.98 1017.09 1017.10 1017.11 1017.06 1017.00 1017.02 1017.12
1007.69 1008.18 1007.46 1006.30 1005.46 1004.92 1004.64 1004.93 1005.44 1005.65 1006.47 1006.93 1007.56 1008.92 1010.51 1010.47 1011.14 1011.76 1012.46 1013.04 1013.36 1013.52 1013.51 1013.61 1013.84 1014.08 1014.39 1014.69 1014.96 1015.26 1015.50 1015.71 1015.83 1016.07 1016.34 1016.48 1016.56 1016.58 1016.64 1016.74 1016.80 1016.95 1017.10 1017.08 1017.05 1017.00 1016.92 1016.94 1016.91
1007.29 1007.79 1007.01 1005.92 1005.27 1004.46 1004.48 1004.79 1005.56 1005.66 1006.33 1006.88 1007.32 1007.82 1008.55 1009.96 1011.08 1011.95 1012.76 1013.43 1013.65 1013.80 1013.93 1013.93 1014.07 1014.28 1014.62 1014.90 1015.01 1015.22 1015.41 1015.58 1015.72 1015.88 1016.10 1016.30 1016.54 1016.63 1016.62 1016.64 1016.76 1016.85 1016.97 1016.98 1016.92 1016.81 1016.78 1016.86 1016.84
1007.51 1007.77 1006.74 1005.42 1004.69 1004.15 1004.20 1004.43 1005.24 1006.07 1006.68 1007.21 1007.73 1008.20 1009.15 1010.30 1011.06 1011.74 1012.53 1013.12 1013.57 1013.73 1013.92 1014.10 1014.23 1014.54 1014.85 1015.01 1015.22 1015.38 1015.50 1015.53 1015.64 1015.79 1015.94 1016.06 1016.37 1016.62 1016.59 1016.62 1016.59 1016.66 1016.72 1016.68 1016.62 1016.77 1016.72 1016.93 1017.00
1007.98 1007.72 1006.81 1005.01 1004.53 1003.83 1004.03 1004.59 1005.11 1006.04 1006.85 1006.98 1007.44 1008.56 1009.48 1010.44 1011.32 1011.68 1012.23 1012.39 1012.38 1013.12 1013.74 1013.93 1014.31 1014.52 1014.80 1014.89 1015.19 1015.43 1015.52 1015.58 1015.70 1015.79 1015.88 1016.06 1016.17 1016.30 1016.38 1016.48 1016.56 1016.63 1016.53 1016.53 1016.43 1016.41 1016.58 1016.65 1016.83
1007.94 1007.26 1007.14 1005.98 1004.36 1003.56 1003.71 1004.34 1005.32 1005.83 1006.07 1006.63 1007.30 1008.34 1009.50 1010.42 1011.06 1011.50 1011.87 1012.35 1012.89 1013.02 1013.39 1013.83 1014.06 1014.30 1014.56 1014.71 1014.80 1015.00 1015.19 1015.42 1015.57 1015.62 1015.77 1016.03 1016.19 1016.22 1016.19 1016.17 1016.22 1016.45 1016.36 1016.49 1016.39 1016.34 1016.37 1016.56 1016.64
1008.33 1007.65 1007.52 1006.18 1004.75 1003.76 1003.65 1004.42 1005.21 1006.10 1006.35 1007.20 1007.85 1008.72 1009.68 1010.38 1010.74 1011.05 1011.09 1011.62 1012.23 1012.70 1012.98 1013.30 1013.71 1013.94 1014.15 1014.53 1014.54 1014.71 1014.89 1015.05 1015.17 1015.32 1015.42 1015.70 1015.93 1016.11 1016.04 1015.96 1015.88 1015.79 1015.94 1016.10 1016.19 1016.14 1016.13 1016.17 1016.43
1008.30 1007.88 1007.14 1006.20 1005.18 1004.42 1004.43 1005.12 1005.25 1006.78 1006.78 1007.63 1008.21 1008.84 1009.34 1009.97 1010.32 1010.79 1011.08 1011.28 1011.67 1011.99 1012.28 1012.58 1012.98 1013.29 1013.58 1013.98 1014.11 1014.26 1014.49 1014.68 1014.93 1015.10 1015.15 1015.38 1015.56 1015.64 1015.82 1015.92 1015.74 1015.43 1015.38 1015.38 1015.67 1015.70 1015.92 1016.02 1016.43
1007.77 1007.74 1006.82 1005.94 1005.23 1005.26 1004.82 1005.85 1006.30 1006.70 1007.24 1007.80 1008.40 1008.76 1009.11 1009.20 1009.58 1009.83 1010.02 1010.42 1010.56 1010.96 1011.51 1011.88 1012.30 1012.72 1013.06 1013.40 1013.69 1013.85 1013.97 1014.31 1014.52 1014.55 1014.73 1014.90 1015.16 1015.34 1015.33 1015.44 1015.66 1015.38 1015.30 1015.25 1015.40 1015.50 1015.78 1016.10 1016.18
1008.75 1008.88 1008.21 1005.96 1005.39 1005.38 1005.26 1006.42 1006.91 1007.25 1007.47 1007.96 1008.42 1008.68 1008.78 1008.92 1008.88 1008.85 1009.30 1009.50 1009.91 1010.44 1010.94 1011.32 1011.70 1012.18 1012.54 1012.81 1013.04 1013.17 1013.40 1013.55 1013.68 1013.85 1014.04 1014.28 1014.53 1014.76 1015.10 1015.19 1015.06 1014.86 1015.11 1015.18 1015.34 1015.52 1015.82 1015.98 1016.08
1009.49 1009.18 1008.17 1006.46 1005.30 1005.26 1005.51 1006.63 1006.95 1007.34 1007.66 1007.99 1008.18 1008.34 1008.35 1008.44 1008.62 1008.53 1008.47 1008.88 1009.32 1009.64 1010.12 1010.70 1011.12 1011.45 1011.85 1012.19 1012.41 1012.55 1012.74 1013.12 1013.08 1013.20 1013.33 1013.52 1013.82 1014.14 1014.39 1014.48 1014.36 1014.41 1014.64 1014.98 1015.19 1015.37 1015.51 1015.90 1015.95
1008.76 1008.70 1007.68 1006.58 1005.46 1005.29 1005.78 1006.39 1006.75 1007.20 1007.51 1007.66 1007.87 1007.98 1008.03 1008.00 1007.86 1007.77 1008.00 1008.17 1008.77 1009.12 1009.46 1009.92 1010.43 1010.84 1011.33 1011.90 1012.24 1012.49 1012.72 1012.70 1012.64 1012.66 1012.76 1012.48 1012.82 1013.20 1013.86 1014.02 1014.10 1014.30 1014.68 1014.84 1015.02 1015.16 1015.28 1015.46 1015.52
1007.90 1007.74 1007.19 1006.20 1005.55 1005.60 1005.72 1006.21 1006.66 1006.90 1007.27 1007.52 1007.54 1007.48 1007.46 1007.48 1007.05 1007.30 1007.44 1007.65 1008.06 1008.67 1009.17 1009.52 1009.92 1010.18 1010.81 1011.47 1011.98 1012.11 1012.07 1012.14 1012.44 1012.42 1012.19 1012.34 1012.48 1012.67 1013.01 1013.58 1013.86 1013.94 1014.38 1014.37 1014.56 1014.71 1014.92 1015.04 1015.35
1007.06 1006.93 1006.34 1005.46 1004.79 1005.59 1005.98 1006.21 1006.46 1006.74 1006.45 1006.52 1006.60 1006.98 1006.95 1007.15 1007.16 1007.11 1007.29 1007.49 1007.78 1008.14 1008.63 1009.12 1009.26 1009.70 1010.12 1010.34 1010.50 1011.01 1011.14 1011.15 1011.11 1011.28 1011.52 1011.66 1011.88 1012.16 1012.34 1012.64 1013.05 1013.34 1013.73 1013.88 1014.08 1014.37 1014.49 1014.45 1014.66
1006.05 1006.15 1005.36 1005.84 1005.35 1005.69 1006.12 1006.54 1006.22 1006.21 1006.17 1006.05 1006.01 1006.14 1006.26 1006.42 1006.69 1006.77 1007.06 1007.26 1007.46 1007.85 1008.04 1008.34 1008.63 1008.91 1009.32 1009.66 1010.33 1010.52 1010.56 1010.59 1010.52 1010.46 1010.35 1010.48 1010.70 1010.98 1011.28 1011.49 1011.96 1012.36 1012.90 1013.20 1013.44 1013.88 1014.26 1014.08 1014.05
1005.42 1004.22 1004.76 1005.42 1005.81 1006.39 1006.46 1007.12 1006.26 1005.74 1005.86 1005.62 1005.39 1005.54 1005.49 1005.56 1005.97 1006.30 1006.70 1006.79 1006.91 1006.78 1007.29 1007.39 1007.60 1007.73 1008.04 1008.50 1008.90 1009.48 1009.93 1010.23 1010.17 1010.29 1010.37 1010.34 1010.18 1010.16 1010.15 1010.48 1011.08 1011.41 1011.68 1012.12 1012.39 1012.64 1012.97 1013.51 1013.62
1003.72 1003.64 1004.44 1005.25 1006.33 1007.02 1007.28 1007.42 1005.94 1005.69 1005.54 1005.02 1004.62 1004.38 1004.53 1004.64 1005.09 1005.56 1005.67 1005.78 1005.88 1006.13 1006.26 1006.54 1006.77 1007.07 1007.20 1007.69 1008.13 1008.75 1009.09 1009.05 1009.23 1009.65 1009.82 1009.92 1010.15 1010.40 1010.01 1010.04 1010.24 1010.48 1010.96 1011.12 1011.56 1011.91 1012.08 1012.39 1012.69
1002.47 1003.67 1005.39 1006.18 1007.16 1008.23 1007.42 1007.41 1006.05 1005.34 1004.39 1004.04 1003.83 1003.70 1003.63 1003.92 1004.36 1005.06 1004.99 1005.35 1005.40 1005.60 1005.89 1006.12 1006.40 1006.46 1006.82 1007.36 1007.87 1008.31 1008.31 1008.60 1008.81 1009.08 1009.44 1009.76 1009.98 1009.88 1010.30 1010.34 1009.94 1009.60 1009.57 1009.93 1010.22 1010.92 1011.44 1011.84 1011.86
1002.50 1004.26 1005.85 1007.38 1008.28 1008.32 1007.70 1007.51 1005.32 1004.04 1003.39 1002.90 1003.00 1003.15 1003.12 1003.28 1003.89 1004.37 1004.49 1004.74 1004.98 1005.02 1005.05 1005.47 1005.79 1005.85 1006.13 1006.64 1007.10 1007.23 1007.42 1007.94 1008.48 1008.56 1008.80 1008.96 1009.28 1009.68 1009.72 1009.73 1009.70 1009.64 1009.24 1009.28 1009.54 1009.99 1010.46 1010.79 1010.94
1002.66 1003.73 1005.49 1007.31 1008.74 1008.34 1007.67 1006.61 1004.46 1003.29 1002.68 1002.85 1002.68 1002.74 1002.84 1003.29 1003.36 1003.64 1003.44 1003.73 1004.05 1004.26 1004.55 1004.84 1005.06 1005.18 1005.68 1005.84 1006.09 1006.33 1006.87 1007.54 1007.62 1007.96 1007.75 1007.87 1007.87 1008.27 1008.70 1009.18 1009.36 1009.58 1009.29 1008.84 1008.60 1008.65 1009.28 1009.62 1010.01
1002.28 1003.51 1004.55 1006.79 1008.56 1008.62 1007.84 1006.28 1004.30 1003.62 1003.31 1003.38 1003.43 1003.05 1003.18 1003.14 1003.02 1002.95 1002.98 1003.22 1003.52 1003.96 1004.20 1004.41 1004.73 1004.80 1005.05 1005.25 1005.67 1005.91 1006.45 1006.90 1008.44 1009.44 1008.92 1009.83 1008.53 1007.88 1008.44 1008.37 1008.64 1008.95 1009.17 1008.61 1007.91 1007.79 1008.10 1008.61 1008.88
1001.16 1002.58 1004.51 1006.40 1008.45 1009.04 1008.39 1007.29 1006.23 1005.54 1005.19 1004.51 1004.36 1004.17 1004.15 1003.99 1004.02 1004.19 1004.18 1004.39 1004.52 1004.67 1004.45 1004.66 1005.16 1005.71 1005.78 1005.90 1005.97 1006.56 1007.16 1007.88 1008.36 1006.88 1005.54 1008.67 1010.17 1008.09 1007.98 1008.40 1008.32 1008.21 1008.48 1008.45 1007.84 1007.48 1007.30 1007.77 1007.92
1001.57 1002.56 1004.56 1006.41 1007.85 1008.70 1009.00 1008.13 1006.68 1006.18 1005.97 1005.52 1005.58 1005.22 1005.30 1005.21 1005.04 1004.80 1004.63 1004.37 1004.66 1004.73 1005.18 1005.36 1005.42 1005.25 1005.19 1005.25 1005.33 1005.95 1006.91 1007.29 1007.47 1006.95 1007.87 1007.19 1009.25 1009.38 1007.69 1008.18 1008.38 1007.78 1007.65 1007.99 1007.56 1007.04 1006.56 1007.00 1007.12
1001.97 1002.57 1004.05 1006.18 1008.08 1008.74 1008.60 1008.19 1007.01 1007.02 1006.74 1005.96 1006.14 1006.32 1006.29 1006.05 1005.76 1005.52 1005.31 1005.09 1004.99 1005.08 1005.18 1005.19 1005.47 1005.68 1005.72 1005.63 1005.94 1006.46 1006.52 1006.48 1006.50 1006.20 1005.86 1006.17 1006.92 1007.58 1006.61 1006.41 1007.63 1007.09 1006.96 1007.00 1006.57 1006.34 1006.16 1006.24 1006.40
Thickness
5813 5812 5808 5795 5761 5756 5765 5774 5799 5789 5793 5815 5818 5810 5801 5792 5788 5768 5800 5800 5797 5790 5784 5781 5779 5778 5776 5773 5771 5769 5767 5765 5762 5762 5761 5760 5757 5754 5752 5751 5750 5750 5748 5747 5746 5746 5746 5746 5744
5818 5810 5803 5788 5762 5756 5767 5799 5790 5804 5812 5818 5815 5809 5801 5788 5804 5795 5793 5797 5796 5791 5786 5784 5782 5779 5776 5775 5772 5770 5768 5766 5764 5763 5761 5761 5759 5756 5755 5755 5753 5751 5750 5749 5750 5750 5749 5748 5747
5822 5822 5795 5781 5768 5759 5775 5806 5804 5812 5820 5819 5810 5817 5806 5791 5799 5798 5803 5800 5796 5791 5788 5786 5783 5781 5778 5776 5773 5772 5770 5768 5766 5765 5764 5762 5760 5759 5758 5757 5755 5752 5752 5751 5752 5753 5752 5751 5750
5832 5819 5808 5783 5778 5797 5806 5811 5820 5817 5821 5825 5817 5799 5809 5816 5807 5807 5805 5801 5798 5793 5790 5788 5785 5782 5780 5777 5775 5773 5771 5769 5768 5766 5765 5764 5762 5760 5759 5759 5758 5755 5753 5754 5753 5753 5753 5752 5752
5835 5818 5789 5782 5792 5815 5821 5825 5829 5820 5819 5820 5821 5798 5795 5808 5815 5810 5804 5801 5799 5794 5791 5790 5786 5784 5780 5778 5777 5775 5773 5770 5769 5767 5766 5765 5763 5761 5760 5760 5760 5758 5755 5755 5755 5755 5754 5754 5753
5813 5813 5785 5780 5800 5823 5826 5833 5831 5825 5823 5818 5810 5802 5796 5813 5812 5808 5806 5802 5800 5797 5794 5792 5790 5787 5784 5782 5779 5777 5775 5772 5771 5770 5768 5766 5764 5763 5762 5762 5761 5759 5757 5756 5756 5756 5756 5755 5755
5814 5798 5792 5801 5809 5815 5824 5839 5827 5824 5821 5817 5825 5796 5798 5805 5812 5811 5806 5803 5799 5797 5794 5792 5790 5787 5785 5782 5780 5778 5776 5774 5773 5772 5770 5768 5765 5764 5764 5763 5762 5760 5759 5758 5758 5758 5757 5755 5756
5820 5809 5800 5809 5803 5812 5836 5837 5839 5833 5824 5839 5833 5800 5788 5811 5815 5811 5805 5801 5798 5796 5794 5792 5791 5790 5788 5786 5784 5781 5779 5777 5775 5774 5771 5769 5768 5767 5766 5765 5763 5761 5760 5760 5760 5759 5759 5756 5757
5837 5797 5797 5811 5811 5824 5845 5834 5843 5849 5833 5836 5837 5830 5829 5823 5817 5808 5801 5797 5796 5795 5793 5792 5791 5790 5788 5786 5785 5783 5781 5779 5778 5776 5775 5773 5771 5769 5768 5767 5764 5762 5761 5761 5761 5760 5760 5757 5757
5818 5796 5809 5833 5837 5833 5843 5842 5837 5830 5828 5826 5827 5833 5829 5820 5814 5807 5801 5797 5795 5794 5794 5793 5791 5789 5787 5784 5784 5783 5782 5781 5781 5779 5778 5776 5773 5771 5769 5768 5766 5765 5764 5763 5764 5762 5761 5758 5757
5819 5802 5824 5838 5845 5854 5844 5839 5845 5827 5816 5827 5824 5825 5824 5817 5809 5807 5805 5805 5805 5802 5798 5797 5793 5790 5788 5787 5785 5783 5782 5782 5781 5780 5779 5777 5775 5774 5772 5770 5768 5767 5767 5765 5766 5767 5764 5763 5762
5812 5829 5828 5836 5848 5851 5848 5850 5835 5835 5834 5841 5838 5834 5825 5816 5811 5808 5807 5806 5802 5802 5801 5799 5797 5795 5791 5789 5789 5787 5786 5784 5783 5782 5781 5779 5776 5775 5775 5774 5772 5770 5770 5769 5768 5769 5767 5766 5765
5816 5825 5826 5838 5846 5856 5861 5845 5838 5832 5842 5841 5837 5830 5822 5817 5815 5816 5818 5816 5812 5806 5805 5803 5800 5797 5794 5791 5791 5789 5788 5786 5785 5784 5783 5780 5778 5776 5775 5776 5775 5774 5772 5771 5771 5770 5770 5769 5767
5826 5827 5830 5836 5843 5853 5843 5840 5843 5834 5843 5836 5831 5824 5824 5821 5819 5817 5816 5815 5815 5814 5810 5809 5806 5803 5799 5797 5795 5793 5790 5788 5785 5784 5784 5782 5780 5778 5777 5775 5776 5777 5777 5776 5774 5774 5771 5769 5764
5834 5818 5831 5837 5843 5838 5849 5825 5824 5840 5840 5832 5827 5827 5826 5825 5827 5825 5827 5822 5823 5821 5817 5813 5811 5808 5804 5802 5799 5795 5793 5791 5789 5788 5787 5785 5782 5780 5779 5778 5776 5777 5778 5778 5776 5775 5771 5767 5765
5815 5808 5789 5832 5843 5841 5841 5801 5827 5836 5834 5826 5826 5826 5829 5830 5833 5838 5836 5833 5831 5826 5820 5818 5817 5813 5810 5808 5805 5801 5800 5799 5798 5795 5793 5790 5786 5784 5780 5780 5781 5781 5778 5776 5777 5775 5770 5768 5765
5797 5782 5792 5817 5848 5841 5837 5810 5831 5836 5832 5825 5828 5830 5833 5833 5835 5842 5844 5841 5836 5835 5831 5825 5824 5820 5818 5815 5813 5810 5808 5803 5803 5801 5800 5796 5792 5789 5786 5785 5785 5784 5780 5777 5776 5775 5773 5766 5764
5789 5789 5805 5809 5840 5843 5830 5822 5831 5835 5833 5830 5832 5833 5832 5836 5840 5849 5849 5850 5846 5843 5841 5838 5834 5830 5826 5821 5817 5813 5809 5807 5806 5805 5803 5804 5801 5796 5789 5786 5784 5781 5779 5777 5776 5774 5772 5769 5766
5818 5812 5811 5827 5845 5837 5831 5830 5829 5837 5834 5832 5832 5835 5837 5840 5852 5854 5854 5854 5851 5847 5843 5841 5838 5838 5832 5825 5818 5814 5814 5813 5808 5806 5805 5803 5800 5797 5793 5787 5782 5779 5774 5774 5773 5772 5770 5768 5765
5823 5818 5819 5837 5854 5841 5830 5830 5838 5835 5842 5846 5845 5841 5844 5843 5845 5851 5851 5852 5851 5849 5847 5843 5843 5840 5836 5833 5832 5825 5821 5820 5820 5816 5811 5807 5803 5797 5793 5791 5785 5782 5778 5775 5771 5768 5766 5767 5766
5827 5821 5831 5821 5845 5846 5834 5822 5833 5844 5849 5853 5853 5853 5853 5848 5845 5850 5851 5852 5854 5851 5850 5849 5847 5845 5842 5838 5828 5825 5824 5823 5821 5820 5820 5818 5813 5807 5802 5798 5794 5787 5781 5776 5773 5767 5762 5762 5764
5809 5852 5849 5840 5823 5800 5835 5785 5823 5840 5840 5851 5856 5853 5854 5855 5855 5854 5853 5854 5856 5860 5859 5858 5854 5854 5852 5847 5840 5831 5823 5817 5819 5816 5815 5814 5813 5812 5809 5804 5798 5793 5787 5781 5777 5772 5767 5761 5757
5837 5865 5851 5843 5819 5815 5818 5796 5819 5840 5837 5847 5856 5864 5866 5867 5864 5859 5862 5864 5865 5866 5864 5862 5860 5856 5855 5850 5844 5836 5832 5831 5826 5820 5817 5814 5811 5805 5806 5805 5801 5796 5788 5784 5779 5773 5768 5764 5759
5877 5853 5831 5822 5808 5782 5810 5804 5812 5826 5845 5854 5864 5869 5872 5872 5871 5867 5870 5870 5869 5869 5866 5863 5859 5858 5856 5850 5843 5837 5834 5830 5825 5821 5815 5810 5807 5806 5798 5796 5797 5799 5795 5788 5783 5776 5768 5761 5760
5860 5827 5783 5788 5780 5778 5806 5800 5823 5857 5862 5869 5868 5870 5875 5878 5874 5869 5869 5868 5868 5868 5870 5867 5862 5860 5857 5851 5846 5844 5839 5831 5822 5818 5812 5808 5802 5798 5795 5793 5789 5786 5787 5786 5781 5775 5768 5763 5758
5847 5835 5791 5774 5764 5784 5814 5798 5828 5865 5874 5878 5878 5877 5876 5874 5877 5874 5879 5879 5877 5875 5871 5867 5863 5862 5860 5855 5849 5845 5837 5827 5823 5815 5811 5804 5803 5798 5794 5786 5781 5777 5776 5778 5781 5780 5771 5765 5757
5850 5830 5842 5793 5789 5782 5792 5817 5854 5863 5861 5862 5860 5869 5871 5874 5879 5882 5884 5882 5881 5877 5874 5869 5863 5862 5859 5855 5850 5843 5832 5821 5807 5787 5773 5778 5782 5789 5784 5782 5775 5770 5766 5770 5775 5774 5769 5761 5756
5869 5863 5823 5801 5777 5778 5781 5799 5802 5821 5835 5849 5851 5855 5860 5868 5870 5867 5868 5868 5867 5865 5866 5864 5856 5846 5843 5840 5837 5826 5815 5802 5790 5774 5775 5776 5759 5768 5772 5766 5765 5764 5761 5760 5763 5763 5762 5757 5752
5851 5844 5820 5807 5791 5768 5760 5779 5825 5820 5831 5835 5840 5847 5850 5854 5859 5862 5864 5866 5863 5860 5853 5848 5845 5845 5840 5836 5830 5817 5805 5795 5783 5775 5766 5775 5752 5741 5752 5751 5749 5754 5758 5751 5750 5751 5754 5747 5744
5862 5852 5829 5797 5798 5771 5771 5779 5832 5823 5831 5840 5838 5841 5843 5848 5851 5854 5856 5855 5853 5849 5846 5842 5837 5831 5825 5823 5811 5800 5797 5789 5784 5781 5781 5773 5761 5749 5750 5756 5740 5748 5749 5746 5745 5744 5744 5739 5734